SIA226 YPPH-WSSS

Flight info

Callsign SIA226
Flight time N/A
Altitude 40000
Route AVNEX N752 PLB G579 REPOV REPOV2B
Aircraft A359/H-SDE2E3GHIJ3J4J5LM1ORWXY/LB1D1

Departure

Time 2026-05-08 04:30
Airport Perth International Airport (YPPH)

Arrival

Time N/A
Airport Singapore Changi Airport (WSSS)
Time Latitude Longitude Altitude Speed Heading
2026-05-08 04:10 -31.94014 115.97379 72 ft 0 kts 165°
2026-05-08 04:20 -31.93997 115.97374 62 ft 4 kts 169°
2026-05-08 04:20 -31.93970 115.97369 62 ft 4 kts 177°
2026-05-08 04:21 -31.93944 115.97370 63 ft 4 kts 189°
2026-05-08 04:21 -31.93920 115.97379 62 ft 4 kts 224°
2026-05-08 04:21 -31.93912 115.97395 62 ft 1 kts 270°
2026-05-08 04:21 -31.93912 115.97399 62 ft 0 kts 270°
2026-05-08 04:24 -31.93912 115.97377 64 ft 6 kts 270°
2026-05-08 04:24 -31.93922 115.97314 63 ft 10 kts 245°
2026-05-08 04:24 -31.93960 115.97221 63 ft 13 kts 251°
2026-05-08 04:25 -31.93950 115.97107 67 ft 16 kts 284°
2026-05-08 04:25 -31.93923 115.96975 67 ft 16 kts 283°
2026-05-08 04:25 -31.93971 115.96876 65 ft 16 kts 201°
2026-05-08 04:25 -31.94086 115.96841 64 ft 18 kts 194°
2026-05-08 04:26 -31.94220 115.96802 63 ft 21 kts 194°
2026-05-08 04:26 -31.94370 115.96758 64 ft 24 kts 194°
2026-05-08 04:26 -31.94528 115.96713 65 ft 20 kts 194°
2026-05-08 04:26 -31.94670 115.96671 64 ft 23 kts 194°
2026-05-08 04:27 -31.94829 115.96624 63 ft 25 kts 194°
2026-05-08 04:27 -31.95003 115.96574 66 ft 27 kts 194°
2026-05-08 04:27 -31.95192 115.96519 67 ft 29 kts 194°
2026-05-08 04:27 -31.95387 115.96461 72 ft 29 kts 194°
2026-05-08 04:28 -31.95586 115.96403 82 ft 30 kts 194°
2026-05-08 04:28 -31.95792 115.96343 85 ft 31 kts 194°
2026-05-08 04:28 -31.95912 115.96286 85 ft 11 kts 233°
2026-05-08 04:28 -31.95913 115.96200 86 ft 11 kts 281°
2026-05-08 04:29 -31.95894 115.96108 88 ft 13 kts 286°
2026-05-08 04:29 -31.95870 115.96003 83 ft 11 kts 284°
2026-05-08 04:29 -31.95832 115.95983 84 ft 7 kts
2026-05-08 04:29 -31.95639 115.96037 72 ft 63 kts 13°
2026-05-08 04:30 -31.94989 115.96228 65 ft 128 kts 14°
2026-05-08 04:30 -31.94023 115.96481 450 ft 150 kts 15°
2026-05-08 04:30 -31.92994 115.96716 1174 ft 154 kts 13°
2026-05-08 04:30 -31.91860 115.96977 1587 ft 178 kts 17°
2026-05-08 04:31 -31.90564 115.97332 2071 ft 199 kts 19°
2026-05-08 04:31 -31.89200 115.97706 2806 ft 203 kts 12°
2026-05-08 04:31 -31.87773 115.97541 3642 ft 213 kts 345°
2026-05-08 04:31 -31.86569 115.96542 4499 ft 222 kts 314°
2026-05-08 04:32 -31.85880 115.94792 4884 ft 255 kts 283°
2026-05-08 04:32 -31.85670 115.92641 5394 ft 271 kts 279°
2026-05-08 04:32 -31.85429 115.90411 6106 ft 279 kts 280°
2026-05-08 04:32 -31.85152 115.88110 6838 ft 288 kts 281°
2026-05-08 04:33 -31.84860 115.85756 7617 ft 294 kts 281°
2026-05-08 04:33 -31.84561 115.83372 8531 ft 295 kts 281°
2026-05-08 04:33 -31.84260 115.80976 9458 ft 298 kts 281°
2026-05-08 04:33 -31.83952 115.78545 10308 ft 304 kts 281°
2026-05-08 04:34 -31.83627 115.76005 10747 ft 325 kts 281°
2026-05-08 04:34 -31.83330 115.73286 11085 ft 347 kts 275°
2026-05-08 04:34 -31.83639 115.70392 11501 ft 366 kts 255°
2026-05-08 04:34 -31.84404 115.67498 12155 ft 375 kts 252°
2026-05-08 04:35 -31.85225 115.64558 12866 ft 381 kts 252°
2026-05-08 04:35 -31.86055 115.61561 13537 ft 388 kts 253°
2026-05-08 04:35 -31.86886 115.58521 14295 ft 393 kts 253°
2026-05-08 04:35 -31.87722 115.55444 14963 ft 397 kts 253°
2026-05-08 04:36 -31.88564 115.52329 15657 ft 401 kts 253°
2026-05-08 04:36 -31.89403 115.49237 16393 ft 404 kts 253°
2026-05-08 04:36 -31.90126 115.46024 17038 ft 408 kts 262°
2026-05-08 04:36 -31.90176 115.42691 17734 ft 407 kts 280°
2026-05-08 04:37 -31.89379 115.39516 18398 ft 405 kts 299°
2026-05-08 04:37 -31.87807 115.36792 19016 ft 402 kts 316°
2026-05-08 04:37 -31.85638 115.34760 19612 ft 398 kts 334°
2026-05-08 04:37 -31.83079 115.33584 20216 ft 395 kts 351°
2026-05-08 04:38 -31.80357 115.33321 20834 ft 394 kts
2026-05-08 04:38 -31.77603 115.33564 21436 ft 398 kts
2026-05-08 04:38 -31.74835 115.33882 22075 ft 402 kts
2026-05-08 04:38 -31.72039 115.34202 22722 ft 405 kts
2026-05-08 04:39 -31.69229 115.34591 23342 ft 408 kts 10°
2026-05-08 04:39 -31.66433 115.35205 23915 ft 411 kts 17°
2026-05-08 04:39 -31.63748 115.36366 24452 ft 412 kts 26°
2026-05-08 04:39 -31.61176 115.37878 24977 ft 415 kts 29°
2026-05-08 04:40 -31.58607 115.39458 25475 ft 419 kts 30°
2026-05-08 04:40 -31.56018 115.41049 25969 ft 423 kts 29°
2026-05-08 04:40 -31.53392 115.42653 26460 ft 427 kts 28°
2026-05-08 04:40 -31.50778 115.44244 26960 ft 430 kts 29°
2026-05-08 04:41 -31.48071 115.45888 27477 ft 434 kts 29°
2026-05-08 04:41 -31.45385 115.47515 27940 ft 438 kts 29°
2026-05-08 04:41 -31.42662 115.49163 28446 ft 441 kts 29°
2026-05-08 04:41 -31.39928 115.50818 28956 ft 444 kts 29°
2026-05-08 04:42 -31.37169 115.52486 29424 ft 447 kts 29°
2026-05-08 04:42 -31.34422 115.54146 29830 ft 452 kts 29°
2026-05-08 04:42 -31.31618 115.55838 30255 ft 456 kts 29°
2026-05-08 04:42 -31.28794 115.57542 30643 ft 459 kts 29°
2026-05-08 04:43 -31.25945 115.59264 30971 ft 463 kts 28°
2026-05-08 04:43 -31.23059 115.61010 31225 ft 469 kts 28°
2026-05-08 04:43 -31.20150 115.62758 31566 ft 471 kts 28°
2026-05-08 04:43 -31.17217 115.64516 31901 ft 474 kts 28°
2026-05-08 04:44 -31.14277 115.66280 32188 ft 478 kts 28°
2026-05-08 04:44 -31.11307 115.68060 32497 ft 481 kts 28°
2026-05-08 04:44 -31.08319 115.69851 32806 ft 483 kts 28°
2026-05-08 04:44 -31.05329 115.71643 33099 ft 486 kts 27°